User: anonymous   Login
Location: Bothwell
(42.3833°S, 147.0000°E)
Time: 05:54:17
(UTC+10:00)
Language:

BEESAT 2 - Orbit

View from above orbital plane
View from above orbital plane
View from above satellite
View from above satellite

Ground track
Ground track

The orbit data is extracted from the following two-line orbital elements,

1 39136U 13015G   22267.02536100  .00010113  00000-0  41407-3 0  9993
2 39136  64.8742 145.1360 0022417 293.2699  66.6070 15.24530526520938
Epoch (UTC): 24 September 2022 00:36:31
Eccentricity: 0.0022417
inclination: 64.8742°
perigee height: 477 km
apogee height: 507 km
right ascension of ascending node: 145.1360°
argument of perigee: 293.2699°
revolutions per day: 15.24530526
mean anomaly at epoch: 66.6070°
orbit number at epoch: 52093

The dashed part of the orbit path shows where the satellite is in the earth's shadow,  

DLR